Location: Karwodrza
(49.9217°N, 21.0454°E)
Time: 17:15:53
(UTC+02:00)

OTV 5 (USA 277) - Visible Passes

Search period start: 14 October 2019 00:00
Search period end: 24 October 2019 00:00
Orbit: 310 x 324 km, 54.5° (Epoch: 08 October)

Date Brightness Start Highest point End Pass type
(mag) Time Alt. Az. Time Alt. Az. Time Alt. Az.
14 Oct ? 04:08:02 11° ENE 04:08:02 11° ENE 04:08:14 10° ENE visible
14 Oct ? 05:38:55 20° NW 05:40:29 40° NNE 05:43:07 10° E visible
15 Oct ? 04:22:12 16° ENE 04:22:12 16° ENE 04:22:59 10° ENE visible
15 Oct ? 05:53:05 16° WNW 05:55:08 66° NNE 05:57:51 10° ESE visible
16 Oct ? 04:36:26 23° ENE 04:36:26 23° ENE 04:37:48 10° E visible
16 Oct ? 06:07:19 13° WNW 06:09:41 62° SSW 06:12:24 10° SE visible
17 Oct ? 04:50:44 35° ENE 04:50:44 35° ENE 04:52:37 10° E visible
17 Oct ? 06:21:42 10° W 06:24:09 28° SW 06:26:33 10° SSE visible
18 Oct ? 05:05:07 51° ESE 05:05:07 51° ESE 05:07:17 10° ESE visible
19 Oct ? 05:19:36 35° S 05:19:36 35° S 05:21:39 10° SE visible
20 Oct ? 05:34:13 17° SSW 05:34:13 17° SSW 05:35:31 10° S visible
